Flag for Fiji

Past Weather in Lautoka, Fiji — Yesterday and Last 2 Weeks

Now
72 °F

Passing clouds.


Feels Like: 71 °F
Forecast: 85 / 71 °F
Wind: 6 mph from Southeast

Location: Nandi
Current Time: Oct 21, 2020 at 6:00:34 am
Latest Report: Oct 21, 2020 at 5:00 am
Visibility: N/A
Pressure29.86 "Hg
Humidity: 83%
Dew Point: 66 °F
Location of LautokaLocation

Past Weather in Lautoka — Graph

°F

Lautoka Temperature Yesterday

Maximum temperature yesterday: 84 °F (at 11:00 am)
Minimum temperature yesterday: 68 °F (at 5:00 am)
Average temperature yesterday: 77 °F

High & Low Weather Summary for the Past Weeks

 TemperatureHumidityPressure
High90 °F (Oct 6, 2:00 pm)100% (Oct 7, 4:00 am)29.95 "Hg (Oct 7, 4:00 am)
Low68 °F (Oct 20, 5:00 am)43% (Oct 19, 1:00 pm)29.65 "Hg (Oct 17, 3:00 am)
Average79 °F79%29.85 "Hg
* Reported Oct 6 5:00 am — Oct 21 5:00 am, Lautoka. Weather by CustomWeather, © 2020

Note: Actual official high and low records may vary slightly from our data, if they occured in-between our weather recording intervals... More about our weather records

Lautoka Weather History for the Previous 24 Hours

Scroll right to see more
 ConditionsComfort  
Time TempWeatherWind HumidityBarometerVisibility
5:00 am
Wed, Oct 21
72 °FPassing clouds.6 mph83%29.86 "HgN/A
4:00 am72 °FPassing clouds.6 mph83%29.86 "HgN/A
3:00 am72 °FPassing clouds.5 mph83%29.89 "HgN/A
2:00 am73 °FPassing clouds.5 mph78%29.89 "HgN/A
1:00 am73 °FPassing clouds.3 mph78%29.92 "HgN/A
12:00 am75 °FPassing clouds.6 mph74%29.92 "HgN/A
11:00 pm
Tue, Oct 20
75 °FPassing clouds.7 mph74%29.92 "HgN/A
10:00 pm75 °FPassing clouds.7 mph74%29.95 "HgN/A
9:00 pm77 °FPassing clouds.8 mph74%29.92 "HgN/A
8:00 pm79 °FPassing clouds.8 mph70%29.92 "HgN/A
7:00 pm79 °FPartly cloudy.8 mph70%29.89 "HgN/A
6:00 pm81 °FBroken clouds.7 mph70%29.86 "HgN/A
5:00 pm81 °FBroken clouds.10 mph70%29.83 "HgN/A
4:00 pm81 °FScattered clouds.15 mph66%29.83 "HgN/A
3:00 pm82 °FScattered clouds.15 mph66%29.83 "HgN/A
2:00 pm82 °FScattered clouds.16 mph62%29.86 "HgN/A
1:00 pm84 °FScattered clouds.17 mph55%29.86 "HgN/A
12:00 pm84 °FScattered clouds.5 mph48%29.86 "HgN/A
11:00 am84 °FScattered clouds.7 mph51%29.89 "HgN/A
10:00 am82 °FPassing clouds.10 mph55%29.92 "HgN/A
9:00 am81 °FPassing clouds.14 mph54%29.92 "HgN/A
8:00 am79 °FPassing clouds.13 mph61%29.92 "HgN/A
7:00 am73 °FPassing clouds.12 mph74%29.92 "HgN/A
6:00 am72 °FPassing clouds.12 mph73%29.89 "HgN/A
Weather by CustomWeather, © 2020

See weather overview